Lexington Weather

Lexington, Massachusetts, USA

46°F
10/22/2019 2:06am 
  • Lexington Conditions: Few Clouds
  • Temperature: 46.2°F / 7.9°CWarmer 0.7°F than last hour.
  • Dew Point: 44.6°FIncreased 1.3°Fsince last hour.
  • Relative Humidity: 94%Increased 2.0% since last hour.
  • Wind: Calm, 10-min avg: Calm, gust: None
  • Barometer: 30.12 in Steady
  • Visibility: 10 miles
  • Rain Today: 0.00 in
  •   

Regional Weather Roundup
for Boston, MA

        
000
ASUS41 KBOX 200310
RWRBOX

REGIONAL WEATHER ROUNDUP
NATIONAL WEATHER SERVICE BOSTON/NORTON MA
1100 PM EDT SAT OCT 19 2019

NOTE:  "FAIR" INDICATES FEW OR NO CLOUDS BELOW 12,000 FEET WITH NO 
SIGNIFICANT WEATHER AND/OR OBSTRUCTIONS TO VISIBILITY.

MAZALL-200400-
EASTERN MASSACHUSETTS
  
CITY           SKY/WX    TMP DP  RH WIND       PRES   REMARKS
BOSTON         FAIR      53  36  52 W3        30.04S                  
BEVERLY        FAIR      38  36  92 N3        30.03R                  
LAWRENCE       FAIR      40  37  89 CALM      30.06R                  
BEDFORD        FAIR      40  34  79 CALM      30.04R                  
BLUE HILL      NOT AVBL                                               
NORWOOD        FAIR      37  32  82 CALM      30.05R                  
MARSHFIELD     FAIR      43  41  93 W6        30.04R                  
PLYMOUTH       FAIR      39  37  92 CALM      30.05R                  
TAUNTON        FAIR      36  33  89 CALM      30.04R                  
NEW BEDFORD    FAIR      40  37  89 CALM      30.04R                  
$$

MAZALL-200400-
CAPE COD AND THE ISLANDS
  
CITY           SKY/WX    TMP DP  RH WIND       PRES   REMARKS
FALMOUTH       CLEAR     37  36  93 CALM      30.04S                  
HYANNIS        FAIR      40  36  86 CALM      30.04R                  
CHATHAM        NOT AVBL                                               
PROVINCETOWN   FAIR      40  38  93 CALM        N/A                   
NANTUCKET      FAIR      43  40  89 W3        30.05S                  
MARTHAS VNYRD  FAIR      33  31  92 CALM      30.05R                  
$$
 
MAZALL-200400-
CENTRAL AND WESTERN MASSACHUSETTS
  
CITY           SKY/WX    TMP DP  RH WIND       PRES   REMARKS
WORCESTER      FAIR      46  35  65 W6        30.03S                  
FITCHBURG      FAIR      38  34  85 NW3       30.05S                  
ORANGE         FAIR      36  33  89 CALM      30.06R FOG              
SPRINGFIELD    PTCLDY    38  36  94 CALM      30.04R                  
WESTFIELD      FAIR      38  34  85 CALM      30.04S                  
NORTH ADAMS    FAIR      33  31  92 CALM      30.06S                  
PITTSFIELD     FAIR      36  33  89 CALM      30.03S                  
$$
 
RIZALL-200400-
RHODE ISLAND
  
CITY           SKY/WX    TMP DP  RH WIND       PRES   REMARKS
PROVIDENCE     FAIR      45  41  86 W3        30.05R                  
NEWPORT        FAIR      43  39  86 CALM      30.04S                  
BLOCK ISLAND   FAIR      51  44  77 W7        30.06S                  
SMITHFIELD     FAIR     N/A N/A N/A CALM      30.05R                  
WESTERLY       FAIR      43  41  93 CALM      30.06R                  
$$
 
CTZALL-200400-
CONNECTICUT
  
CITY           SKY/WX    TMP DP  RH WIND       PRES   REMARKS
BRADLEY INTL   FAIR      43  35  73 CALM      30.04S                  
HARTFORD       FAIR      43  41  93 CALM      30.05S                  
BRIDGEPORT     FAIR      49  43  80 N3        30.05S                  
DANBURY        FAIR      39  38  96 CALM      30.05F                  
GROTON         FAIR      43  41  93 N5        30.05S                  
NEW HAVEN      FAIR      46  41  82 CALM      30.05S                  
CHESTER        FAIR      48  41  76 CALM      30.05S                  
MERIDEN        FAIR      40  38  93 CALM      30.05S                  
WILLIMANTIC    FAIR      38  36  92 CALM      30.06S                  
OXFORD         FAIR      41  37  86 CALM      30.05S                  
$$

MEZ002-015-021-024-NHZ003-005-008-011-012-014-VTZ005-008-200400-
NORTHERN NEW ENGLAND
  
CITY           SKY/WX    TMP DP  RH WIND       PRES   REMARKS
PORTLAND ME    FAIR      39  33  79 CALM      30.05S                  
BANGOR ME      FAIR      42  34  73 W7        30.04R                  
CONCORD NH     FAIR      34  31  88 CALM      30.04S                  
MANCHESTER NH  FAIR      42  36  79 SE5       30.03R                  
NASHUA NH      FAIR      39  37  92 CALM      30.05S                  
PORTSMOUTH NH  PTCLDY    39  37  90 W3        30.03R                  
JAFFREY NH     FAIR      34  32  92 CALM      30.04S                  
KEENE NH       FAIR      34  34 100 CALM      30.06R                  
BURLINGTON VT  FAIR      38  34  85 E5        30.05S                  
MT. WASHINGTON PTCLDY    37   9  30 NW20        N/A  WCI  27          
$$

NYZ052-076-200400-
EASTERN NEW YORK
  
CITY           SKY/WX    TMP DP  RH WIND       PRES   REMARKS
ALBANY         FAIR      42  37  82 CALM      30.05R                  
NEW YORK CITY  MOCLDY    56  38  50 S5        30.04S                  
$$
 
ANZALL-200400-
MARINE OBSERVATIONS
  
STATION/POSITION TIME  TEMP    WIND        PRES    VSBY  WAVE
                       AIR SEA DIR/SP/G                  HT/PER
                 (UTC) (F)     (DEG/KT/KT) (MB)    (MI)  (FT/S)
BOSTON BUOY      0250   54 56  250/  4/  6 1016.4R         1/10
BUZZARDS BAY     0200   57     280/ 10/ 11 1017.6S
NANTUCKET SOUND  0230   55                   N/A
MASS BAY-STELLWA NOT AVBL
ISLE OF SHOALS   0200   53     340/  9/ 10 1016.6R
S OF BLOCK IS    0300      60                N/A           2/ 4
$$

......................KEY.........................
  SKY/WX - SKY CONDITION/PRESENT WEATHER
  TMP    - TEMPERATURE IN FAHRENHEIT
  DWPT   - DEWPOINT IN FAHRENHEIT
  RH     - RELATIVE HUMIDITY IN PERCENT
  WIND   - DIRECTION AND SPEED IN MPH
  PRES   - MEAN SEA LEVEL PRESSURE IN INCHES OF HG
  WCI    - WIND CHILL INDEX
  VSB    - VISIBILITY IN MILES
  HX     - HEAT INDEX
  TC     - TEMPERATURE IN CELSIUS
  VRB    - VARIABLE WIND DIRECTION
  N/A    - NOT AVAILABLE
  
      

Other recent Regional Weather Roundups

Tue Oct 22, 1:10am

Tue Oct 22, 1:00am

Tue Oct 22, 12:10am

Tue Oct 22, 12:00am

Mon Oct 21, 11:10pm

Mon Oct 21, 11:00pm

Mon Oct 21, 10:10pm

Mon Oct 21, 10:01pm

Mon Oct 21, 9:10pm

Mon Oct 21, 9:00pm

Mon Oct 21, 8:10pm

Mon Oct 21, 8:00pm

Mon Oct 21, 7:10pm

Mon Oct 21, 7:01pm

Mon Oct 21, 6:10pm

Mon Oct 21, 6:01pm

Mon Oct 21, 5:10pm

Mon Oct 21, 5:01pm

Mon Oct 21, 4:10pm

Mon Oct 21, 4:00pm

Mon Oct 21, 3:10pm

Mon Oct 21, 3:01pm

Mon Oct 21, 2:10pm

Mon Oct 21, 2:00pm

Mon Oct 21, 1:10pm

Mon Oct 21, 1:01pm

Mon Oct 21, 12:10pm

Mon Oct 21, 12:00pm

Mon Oct 21, 11:10am

Mon Oct 21, 11:00am

Mon Oct 21, 10:10am

Mon Oct 21, 10:00am

Mon Oct 21, 9:10am

Mon Oct 21, 9:00am

Mon Oct 21, 7:10am

Mon Oct 21, 7:00am

Mon Oct 21, 6:10am

Mon Oct 21, 6:00am

Mon Oct 21, 5:10am

Mon Oct 21, 5:00am

Mon Oct 21, 4:10am

Mon Oct 21, 4:00am

Mon Oct 21, 3:10am

Mon Oct 21, 3:00am

Mon Oct 21, 2:10am

Mon Oct 21, 2:01am

Mon Oct 21, 1:10am

Mon Oct 21, 1:00am

Mon Oct 21, 12:10am

Mon Oct 21, 12:00am

Sun Oct 20, 11:10pm

Sun Oct 20, 11:00pm

Sun Oct 20, 10:10pm

Sun Oct 20, 10:00pm

Sun Oct 20, 9:10pm

Sun Oct 20, 9:01pm

Sun Oct 20, 8:10pm

Sun Oct 20, 8:00pm

Sun Oct 20, 7:10pm

Sun Oct 20, 7:01pm

Sun Oct 20, 6:10pm

Sun Oct 20, 6:00pm

Sun Oct 20, 5:10pm

Sun Oct 20, 5:00pm

Sun Oct 20, 4:10pm

Sun Oct 20, 4:00pm

Sun Oct 20, 3:10pm

Sun Oct 20, 3:00pm

Sun Oct 20, 2:10pm

Sun Oct 20, 2:01pm

Sun Oct 20, 1:10pm

Sun Oct 20, 1:01pm

Sun Oct 20, 12:10pm

Sun Oct 20, 12:00pm

Sun Oct 20, 11:10am

Sun Oct 20, 11:00am

Sun Oct 20, 10:10am

Sun Oct 20, 10:00am

Sun Oct 20, 9:10am

Sun Oct 20, 9:00am

Sun Oct 20, 8:10am

Sun Oct 20, 8:00am

Sun Oct 20, 7:10am

Sun Oct 20, 7:00am

Sun Oct 20, 6:10am

Sun Oct 20, 6:00am

Sun Oct 20, 5:10am

Sun Oct 20, 5:00am

Sun Oct 20, 4:10am

Sun Oct 20, 4:00am

Sun Oct 20, 3:10am

Sun Oct 20, 3:00am

Sun Oct 20, 2:10am

Sun Oct 20, 2:00am

Sun Oct 20, 1:10am

Sun Oct 20, 1:00am

Sun Oct 20, 12:10am

Sun Oct 20, 12:00am

Sat Oct 19, 11:00pm

Sat Oct 19, 10:10pm

Sat Oct 19, 10:00pm

Sat Oct 19, 9:10pm

Sat Oct 19, 9:00pm

Sat Oct 19, 8:10pm

Sat Oct 19, 8:00pm

Sat Oct 19, 7:10pm

Sat Oct 19, 7:00pm

Sat Oct 19, 6:10pm

Sat Oct 19, 6:00pm

Sat Oct 19, 5:10pm

Sat Oct 19, 5:00pm

Sat Oct 19, 4:10pm

Sat Oct 19, 4:00pm

Sat Oct 19, 3:10pm

Sat Oct 19, 3:01pm

Sat Oct 19, 2:10pm

Sat Oct 19, 2:00pm

Sat Oct 19, 1:10pm

Sat Oct 19, 1:01pm

Sat Oct 19, 12:10pm

Sat Oct 19, 12:00pm

Sat Oct 19, 11:10am

Sat Oct 19, 11:01am

Sat Oct 19, 10:10am

Sat Oct 19, 10:00am

Sat Oct 19, 9:10am

Sat Oct 19, 9:00am

Sat Oct 19, 8:10am

Sat Oct 19, 8:00am

Sat Oct 19, 7:10am

Sat Oct 19, 7:00am

Sat Oct 19, 6:10am

Sat Oct 19, 6:00am

Sat Oct 19, 5:10am

Sat Oct 19, 5:00am

Sat Oct 19, 4:10am

Sat Oct 19, 4:00am

Sat Oct 19, 3:10am

Sat Oct 19, 3:00am

Sat Oct 19, 2:10am

Sat Oct 19, 2:00am

Meta data:

ID: b9227a1c-bc20-4d78-9ee1-242d34172f7b
Link: https://api.weather.gov/products/b9227a1c-bc20-4d78-9ee1-242d34172f7b